Location: Canyon Rim
(40.8777°N, 111.8641°W)
Time: 08:47:31
(UTC+00:00)

X-37B - Pass Details

Date: 28 April 2021
Orbit: 386 x 389 km, 45.0° (Epoch: 08 May)

Event Time Altitude Azimuth Distance (km) Brightness Sun altitude
Exits shadow 10:54:26 51° 233° (SW) 495 0.6 -16.6°
Maximum altitude 10:54:45 54° 208° (SSW) 477 0.6 -16.6°
Drops below altitude 10° 10:57:51 10° 129° (SE) 1,407 3.6 -16.1°
Sets 10:59:56 0° 125° (SE) 2,258 4.7 -15.8°
